Tracking 30466 objects as of 17-May-2025
HD Live streaming from Space Station
objects crossing your sky now

THOR ABLESTAR DEB

Track THOR ABLESTAR DEB now!
10-day predictions


NORAD ID: 120
Int'l Code: 1961-015E
Perigee: 717.1 km
Apogee: 888.1 km
Inclination: 66.7 °
Period: 100.8 minutes
Semi major axis: 7173 km
RCS: 0.214 m2 (medium)
Launch date: June 29, 1961
Source: United States (US)
Launch site: AIR FORCE EASTERN TEST RANGE (AFETR)

Note: This is SATELLITE DEBRIS
Your satellite tracking list
Your tracking list is empty




NASA's NSSDC Master Catalog

Two Line Element Set (TLE):
1   120U 61015E   25137.44117808  .00000754  00000-0  30811-3 0  9999
2   120  66.7068  25.3930 0119204 290.5219  68.3118 14.28883981292221
Source of the keplerian elements: AFSPC